#timestamp,LO_Frequency,Hit,StdDev 
1584022815.6,286047001.2,P
1584022835.4,286046998.2,P
1584022855.3,286047000.2,N
1584022875.1,286047001.2,N
1584022895.9,286047001.0,N
1584022915.7,286047001.5,N
1584022935.5,286047004.2,Y
1584022955.4,286047004.0,P
1584022975.2,286047000.1,N
1584022995.0,286047002.3,N
1584022996.0,286047002.3,N
1584023015.8,286047000.1,N
1584023035.6,286046999.9,N
1584023055.5,286046998.1,N
1584023075.3,286047000.8,N
1584023095.1,286046998.5,N
1584023115.9,286046997.5,N
1584023135.7,286046995.5,N
1584023155.6,286046997.9,N
1584023175.4,286046997.8,N
1584023195.2,286046997.8,N
1584023215.1,286046997.8,N
1584023216.0,286046997.8,N
1584023235.8,286046996.7,N
1584023255.6,286046999.4,N
1584023275.5,286046999.5,N
1584023295.3,286046999.6,N
1584023315.2,286046999.6,N
1584023335.9,286046998.7,N
1584023355.7,286046999.6,N
1584023375.6,286046996.6,N
1584023395.4,286046997.0,N
1584023415.3,286046994.9,N
1584023435.1,286046995.3,N
1584023436.0,286046995.3,N
1584023455.8,286046996.5,N
1584023475.7,286046997.5,N
1584023495.5,286046996.6,N
1584023515.3,286046997.0,N
1584023535.2,286046997.6,N
1584023555.0,286046994.9,N
1584023555.9,286046994.9,Y
1584023575.8,286046998.9,P
1584023595.6,286046998.9,N
1584023615.4,286046996.9,P
1584023635.3,286046997.3,Y
1584023655.1,286047000.5,P
1584023675.9,286047000.5,N
1584023695.7,286046998.4,N
1584023715.5,286047001.1,N
1584023735.4,286047000.2,N
1584023755.2,286047002.7,N
1584023775.0,286047001.7,N
1584023775.9,286047001.7,N
1584023795.8,286047002.1,N
1584023815.6,286047002.0,N
1584023835.5,286047000.2,N
1584023855.3,286046999.9,N
1584023875.1,286046998.6,N
1584023895.9,286047000.4,N
1584023915.7,286047002.4,N
1584023935.6,286047002.4,N
1584023955.4,286047000.5,N
1584023975.2,286047000.6,N
1584023995.1,286047000.5,N
1584023996.0,286047000.5,N
1584024015.8,286047002.8,N
1584024035.6,286047002.2,N
1584024055.5,286047001.9,N
1584024075.3,286047004.2,Y
1584024095.2,286047002.5,P
1584024115.9,286047000.1,N
1584024135.7,286046999.8,N
1584024155.6,286047000.1,N
1584024175.4,286047003.8,Y
1584024195.3,286047002.8,P
1584024215.1,286047000.8,N
1584024216.0,286047000.8,N
1584024235.8,286046998.9,N
1584024255.7,286046999.1,N
1584024275.5,286046998.2,N
1584024295.3,286046998.4,N
1584024315.2,286046998.7,N
1584024335.0,286046996.6,N
1584024335.9,286046996.6,N
1584024355.8,286046999.9,N
1584024375.6,286047001.9,N
1584024395.4,286046999.7,N
1584024415.3,286046998.7,N
1584024435.1,286047000.2,N
1584024455.9,286046998.5,N
1584024475.7,286046998.4,N
1584024495.5,286046999.6,N
1584024515.4,286046998.1,N
1584024535.2,286047000.4,N
1584024555.0,286046999.0,N
1584024555.9,286046999.0,N
1584024575.8,286046996.6,N
1584024595.6,286046996.8,N
1584024615.5,286046996.7,N
1584024635.3,286046995.1,Y
1584024655.1,286046997.7,P
1584024675.9,286046998.4,N
1584024695.7,286047001.1,N
1584024715.5,286047000.8,N
1584024735.4,286047000.2,N
1584024755.2,286047000.1,N
1584024775.1,286047002.0,N
1584024776.0,286047002.0,N
1584024795.8,286047003.3,N
1584024815.6,286047002.9,N
1584024835.5,286047003.5,N
1584024855.3,286047003.2,N
1584024875.1,286047001.3,N
1584024895.9,286047002.5,N
1584024915.7,286047002.7,N
1584024935.6,286047000.8,N
1584024955.4,286046998.3,N
1584024975.2,286046996.9,N
1584024995.1,286046999.6,N
1584024996.0,286046999.6,N
1584025015.8,286046999.2,N
1584025035.7,286046997.4,N
1584025055.5,286046995.4,N
1584025075.3,286046997.1,N
1584025095.2,286046998.0,N
1584025115.9,286046994.9,N
1584025135.7,286046998.6,N
1584025155.6,286047001.0,N
1584025175.4,286047000.8,N
1584025195.3,286046999.3,N
